TimeCDT,TemperatureF,Dew PointF,Humidity,Sea Level PressureIn,VisibilityMPH,Wind Direction,Wind SpeedMPH,Gust SpeedMPH,PrecipitationIn,Events,Conditions,WindDirDegrees,DateUTC
12:15 AM,42.3,30.4,63,30.09,10.0,East,6.9,-,N/A,,Mostly Cloudy,90,2012-11-03 05:15:00
12:35 AM,42.4,30.2,62,30.09,10.0,East,5.8,-,N/A,,Mostly Cloudy,90,2012-11-03 05:35:00
12:55 AM,42.3,30.0,62,30.09,10.0,East,5.8,-,N/A,,Scattered Clouds,90,2012-11-03 05:55:00
1:15 AM,41.9,30.2,63,30.10,10.0,Calm,Calm,-,N/A,,Mostly Cloudy,0,2012-11-03 06:15:00
1:35 AM,42.3,29.8,61,30.10,10.0,ENE,4.6,-,N/A,,Mostly Cloudy,70,2012-11-03 06:35:00
1:55 AM,42.3,29.3,60,30.10,10.0,ENE,4.6,-,N/A,,Overcast,60,2012-11-03 06:55:00
2:15 AM,42.3,29.3,60,30.09,10.0,NE,3.5,-,N/A,,Overcast,50,2012-11-03 07:15:00
2:35 AM,42.3,29.5,61,30.10,10.0,ENE,3.5,-,N/A,,Overcast,60,2012-11-03 07:35:00
2:55 AM,42.4,29.1,59,30.09,10.0,East,4.6,-,N/A,,Overcast,80,2012-11-03 07:55:00
3:15 AM,42.4,29.1,59,30.09,10.0,East,8.1,-,N/A,,Mostly Cloudy,80,2012-11-03 08:15:00
3:35 AM,42.3,29.3,60,30.09,10.0,ENE,4.6,-,N/A,,Mostly Cloudy,70,2012-11-03 08:35:00
3:55 AM,41.9,29.5,61,30.09,10.0,ENE,4.6,-,N/A,,Mostly Cloudy,70,2012-11-03 08:55:00
4:15 AM,41.4,29.8,64,30.09,10.0,ENE,4.6,-,N/A,,Mostly Cloudy,60,2012-11-03 09:15:00
4:35 AM,40.8,30.6,67,30.09,10.0,NNE,4.6,-,N/A,,Mostly Cloudy,30,2012-11-03 09:35:00
4:55 AM,41.0,30.2,65,30.10,10.0,ENE,3.5,-,N/A,,Mostly Cloudy,60,2012-11-03 09:55:00
5:15 AM,41.2,30.2,65,30.11,10.0,NE,3.5,-,N/A,,Overcast,40,2012-11-03 10:15:00
5:35 AM,41.2,30.4,65,30.12,10.0,NE,3.5,-,N/A,,Overcast,40,2012-11-03 10:35:00
5:55 AM,41.2,29.5,63,30.12,10.0,NE,3.5,-,N/A,,Mostly Cloudy,50,2012-11-03 10:55:00
6:15 AM,40.1,29.8,67,30.13,10.0,NE,5.8,-,N/A,,Scattered Clouds,40,2012-11-03 11:15:00
6:35 AM,40.6,29.5,64,30.13,10.0,NE,3.5,-,N/A,,Mostly Cloudy,50,2012-11-03 11:35:00
6:55 AM,40.6,29.3,64,30.14,10.0,NE,3.5,-,N/A,,Overcast,50,2012-11-03 11:55:00
7:15 AM,40.8,29.3,64,30.14,10.0,ENE,4.6,-,N/A,,Mostly Cloudy,60,2012-11-03 12:15:00
7:35 AM,40.3,29.8,66,30.15,10.0,NNE,4.6,-,N/A,,Mostly Cloudy,30,2012-11-03 12:35:00
7:55 AM,40.3,30.0,67,30.16,10.0,NNE,3.5,-,N/A,,Overcast,30,2012-11-03 12:55:00
8:15 AM,40.5,30.0,66,30.16,10.0,ENE,3.5,-,N/A,,Mostly Cloudy,60,2012-11-03 13:15:00
8:35 AM,40.5,30.0,66,30.17,10.0,NE,4.6,-,N/A,,Scattered Clouds,50,2012-11-03 13:35:00
8:55 AM,41.0,30.4,66,30.17,10.0,ENE,3.5,-,N/A,,Scattered Clouds,60,2012-11-03 13:55:00
9:15 AM,42.3,31.1,65,30.18,10.0,ENE,6.9,-,N/A,,Scattered Clouds,70,2012-11-03 14:15:00
9:35 AM,43.3,31.6,63,30.18,10.0,East,5.8,-,N/A,,Scattered Clouds,80,2012-11-03 14:35:00
10:15 AM,43.9,32.0,63,30.19,10.0,ESE,6.9,-,N/A,,Clear,110,2012-11-03 15:15:00
10:35 AM,44.8,32.2,61,30.19,10.0,East,9.2,-,N/A,,Clear,100,2012-11-03 15:35:00
10:55 AM,46.0,32.4,59,30.19,10.0,ESE,5.8,-,N/A,,Clear,110,2012-11-03 15:55:00
11:15 AM,47.3,32.2,56,30.20,10.0,East,5.8,-,N/A,,Clear,100,2012-11-03 16:15:00
11:35 AM,48.2,32.7,55,30.20,10.0,NE,4.6,-,N/A,,Clear,50,2012-11-03 16:35:00
11:55 AM,48.6,32.4,54,30.20,10.0,ENE,4.6,-,N/A,,Scattered Clouds,70,2012-11-03 16:55:00
12:15 PM,49.8,32.2,51,30.19,10.0,East,4.6,-,N/A,,Scattered Clouds,80,2012-11-03 17:15:00
12:35 PM,49.3,32.2,52,30.19,10.0,East,3.5,-,N/A,,Mostly Cloudy,100,2012-11-03 17:35:00
12:55 PM,50.2,31.8,49,30.18,10.0,Calm,Calm,-,N/A,,Scattered Clouds,0,2012-11-03 17:55:00
1:15 PM,51.1,31.1,46,30.18,10.0,Calm,Calm,-,N/A,,Clear,0,2012-11-03 18:15:00
1:35 PM,51.4,32.0,47,30.18,10.0,Calm,Calm,-,N/A,,Clear,0,2012-11-03 18:35:00
1:55 PM,52.5,29.1,41,30.18,10.0,Calm,Calm,-,N/A,,Clear,0,2012-11-03 18:55:00
2:15 PM,53.6,29.8,40,30.18,10.0,NE,4.6,-,N/A,,Clear,40,2012-11-03 19:15:00
2:35 PM,53.6,29.8,40,30.16,7.0,Calm,Calm,-,N/A,,Clear,0,2012-11-03 19:35:00
2:55 PM,53.6,29.1,39,30.16,10.0,Calm,Calm,-,N/A,,Clear,0,2012-11-03 19:55:00
3:15 PM,54.0,28.9,38,30.17,10.0,Calm,Calm,-,N/A,,Clear,0,2012-11-03 20:15:00
3:35 PM,54.1,28.4,37,30.17,10.0,Calm,Calm,-,N/A,,Clear,0,2012-11-03 20:35:00
3:55 PM,54.1,27.1,35,30.18,10.0,Calm,Calm,-,N/A,,Clear,0,2012-11-03 20:55:00
4:15 PM,53.6,26.6,35,30.18,10.0,Calm,Calm,-,N/A,,Clear,0,2012-11-03 21:15:00
4:35 PM,53.6,27.0,36,30.18,7.0,Calm,Calm,-,N/A,,Clear,0,2012-11-03 21:35:00
4:55 PM,53.2,27.1,37,30.18,10.0,Calm,Calm,-,N/A,,Clear,0,2012-11-03 21:55:00
5:15 PM,52.7,26.6,36,30.18,10.0,Calm,Calm,-,N/A,,Clear,0,2012-11-03 22:15:00
5:35 PM,51.6,28.0,40,30.18,10.0,Calm,Calm,-,N/A,,Clear,0,2012-11-03 22:35:00
5:55 PM,50.0,27.7,42,30.18,10.0,Calm,Calm,-,N/A,,Clear,0,2012-11-03 22:55:00
6:15 PM,48.6,27.5,44,30.18,10.0,Calm,Calm,-,N/A,,Clear,0,2012-11-03 23:15:00
6:35 PM,47.3,27.5,46,30.18,10.0,Calm,Calm,-,N/A,,Clear,0,2012-11-03 23:35:00
6:55 PM,46.4,27.3,47,30.19,7.0,Calm,Calm,-,N/A,,Clear,0,2012-11-03 23:55:00
7:15 PM,44.2,28.4,54,30.19,10.0,Calm,Calm,-,N/A,,Clear,0,2012-11-04 00:15:00
7:35 PM,44.4,28.0,53,30.19,4.0,ENE,3.5,-,N/A,,Haze,60,2012-11-04 00:35:00
7:55 PM,43.3,28.2,55,30.20,10.0,Calm,Calm,-,N/A,,Clear,0,2012-11-04 00:55:00
8:15 PM,44.4,28.9,55,30.20,10.0,Calm,Calm,-,N/A,,Clear,0,2012-11-04 01:15:00
8:35 PM,43.2,29.3,58,30.20,10.0,Calm,Calm,-,N/A,,Clear,0,2012-11-04 01:35:00
8:55 PM,42.8,29.8,60,30.21,10.0,Calm,Calm,-,N/A,,Clear,0,2012-11-04 01:55:00
9:15 PM,41.9,29.8,62,30.20,10.0,ESE,4.6,-,N/A,,Clear,110,2012-11-04 02:15:00
9:35 PM,39.4,29.7,68,30.19,10.0,ESE,3.5,-,N/A,,Clear,110,2012-11-04 02:35:00
9:55 PM,39.2,30.2,70,30.20,10.0,SE,3.5,-,N/A,,Clear,130,2012-11-04 02:55:00
10:15 PM,39.0,29.5,69,30.21,10.0,Calm,Calm,-,N/A,,Clear,0,2012-11-04 03:15:00
10:35 PM,38.5,30.0,72,30.21,10.0,Calm,Calm,-,N/A,,Clear,0,2012-11-04 03:35:00
10:55 PM,38.1,30.0,73,30.21,10.0,Calm,Calm,-,N/A,,Clear,0,2012-11-04 03:55:00
11:15 PM,38.7,30.0,71,30.22,7.0,Calm,Calm,-,N/A,,Clear,0,2012-11-04 04:15:00
11:35 PM,39.0,30.0,70,30.22,10.0,Calm,Calm,-,N/A,,Clear,0,2012-11-04 04:35:00
11:55 PM,38.7,30.4,72,30.21,10.0,Calm,Calm,-,N/A,,Clear,0,2012-11-04 04:55:00